Atyrau, Kazakhstan

1:06 PM AQTT on September 21, 2014 (GMT +0500)
Atyrau | Change Station
CLOSE
Current Station
Airport
Location: Atyrau,
Elevation: -72 ft
Nearby Weather Stations

Elev -72 ft 47.12 °N, 51.83 °E | Updated 36 minutes ago

Mostly Cloudy
Mostly Cloudy
57 °F
Feels Like 57 °F
N
11
Wind Variable Wind from East

Today
High -- | Low -- °F
--% Chance of Precip.
Yesterday
High -- | Low -- °F
Precip. -- in
7:17 AM 7:33 PM
Waning Crescent, 8% visible
Pressure 30.12 in
Visibility 6.2 miles
Clouds Scattered Clouds 3300 ft
Mostly Cloudy 9300 ft
Dew Point 19 °F
Humidity 23%
Rainfall 0.00 in
Snow Depth Not available.
UV 3 out of 12
Pollen Not available.
Air Quality Not available.
Flu Activity Not available.
METAR UATG 210730Z 10005MPS 9999 SCT033CB BKN093 14/M07 Q1020 R14/CLRD70 NOSIG RMK QFE767/1023

More Conditions Fewer Conditions

Pressure 30.12 in
Visibility 6.2 miles
Clouds Scattered Clouds 3300 ft
Mostly Cloudy 9300 ft
Dew Point 19 °F
Humidity 23%
Rainfall 0.00 in
Snow Depth Not available.
UV 3 out of 12
Pollen Not available.
Air Quality Not available.
Flu Activity Not available.
METAR UATG 210730Z 10005MPS 9999 SCT033CB BKN093 14/M07 Q1020 R14/CLRD70 NOSIG RMK QFE767/1023

More Conditions Fewer Conditions

10-Day Weather Forecast

Almanac

Astronomy

Sep. 21, 2014 Rise Set
Actual Time 7:17 AM AQTT 7:33 PM AQTT
Civil Twilight 6:47 AM AQTT 8:03 PM AQTT
Nautical Twilight 6:11 AM AQTT 8:39 PM AQTT
Astronomical Twilight 5:34 AM AQTT 9:16 PM AQTT
Moon 4:21 AM AQTT 6:03 PM AQTT
Length of Visible Light 13h 16m
Length of Day
12h 15m
Tomorrow will be 3m 21s shorter.
Waning Crescent, 8% of the Moon is Illuminated
Today
Waning Crescent
Sep 24
New
Oct 1
First Quarter
Oct 8
Full
Oct 15
Last Quarter

Yesterday's Extremes

Country Highs Country Lows

Community

WunderPhotos

Upload Photos

1,755,101 photos uploaded!

Nearby

Snow Depth

Not available.

Earthquake Activity

City Distance Mag. Time & Date
No recent earthquake activity has been reported nearby.
Minimum magnitude displayed is 2.5.

Coastal Water Temperatures

Place Temperature
No Stations Reporting

Nearby Weather Stations